Regional Weather Roundup
Issued by NWS Bismarck, ND

Home | Current Version | Previous Version | Text Only | Print | Product List | Glossary On
Versions: 1 2 3 4 5 6 7 8 9 10 11 12 13 14 15 16 17 18 19 20 21 22 23 24 25 26 27 28 29 30 31 32 33 34 35 36 37 38 39 40 41 42 43 44 45 46 47 48 49 50
449
ASUS43 KBIS 240102
RWRBIS

NWR BROADCAST TEXT
NATIONAL WEATHER SERVICE BISMARCK ND
800 PM CDT SUN APR 23 2017

NOTE: "FAIR" INDICATES FEW OR NO CLOUDS BELOW 12,000 FEET WITH NO
SIGNIFICANT WEATHER AND/OR OBSTRUCTIONS TO VISIBILITY.


CITY           SKY/WX    TMP DP  RH WIND       PRES   REMARKS
WILLISTON      CLOUDY    32  28  85 E21G26    29.86F WCI  20
MINOT          CLOUDY    31  27  85 E16G23    29.94F WCI  20
MINOT AFB      CLOUDY    31  27  87 E15       29.94F WCI  20
BISMARCK       CLOUDY    36  32  85 E18       29.87S
DICKINSON      CLOUDY    35  31  85 E16       29.76F
GARRISON         N/A     29  26  89 E21G28    29.89F WCI  16
HETTINGER ARPT FAIR      43  36  76 NE17      29.76F
JAMESTOWN      CLOUDY    32  30  92 NE21G31   29.88F WCI  20
HAZEN          CLOUDY    30  28  93 E14G24    29.89F WCI  20
LINTON           N/A     36  36 100 NE17G24   29.83F
MANDAN         CLOUDY    34  32  93 E18G25    29.85S
STANLEY        CLOUDY    28  28 100 E22G31    29.91F WCI  15
TIOGA          CLOUDY    28  28 100 E24G30    29.88F WCI  14
WATFORD CITY   CLOUDY    30  30 100 E16G22    29.84F FOG     WCI  19
$$

CITY           SKY/WX    TMP DP  RH WIND       PRES   REMARKS
GRAND FORKS    MOCLDY    33  30  88 NE18G25   30.03S
GRAND FORKS AF CLOUDY    30  28  93 E13       30.03S
DEVILS LAKE    FLURRIES  28  25  88 E18G28    29.98F WCI  15
FARGO          FAIR      38  32  79 NE20G28   29.92F
CAVALIER       FAIR      36  18  48 E10       30.06S
GRAFTON        MIX PCPN  32  30  93 E12       30.07F
GWINNER        CLEAR     43  37  81 MISG      29.83F
LANGDON        FAIR      34  18  51 E18       30.01F
ROLLA          CLOUDY    34  18  51 E16       29.99F
$$

CITY           SKY/WX    TMP DP  RH WIND       PRES   REMARKS
ABERDEEN       FAIR      56  41  57 NE22G31   29.72R
MOBRIDGE       FAIR      46  35  65 NE21G31   29.72R
BUFFALO          N/A     50  39  66 E20       29.64F
RAPID CITY     FAIR      64  42  44 N14       29.64F
GLASGOW        CLOUDY    38  29  70 E24G30    29.74F
SIDNEY         CLOUDY    33  30  88 E13       29.82F
WOLF POINT     CLOUDY    35  30  82 E21G29    29.78F
GLENDIVE       CLOUDY    41  32  70 E13       29.75F
MILES CITY     CLOUDY    50  37  61 NE15      29.63F
BAKER          CLOUDY    41  33  73 E21       29.71F
$$

CITY           SKY/WX    TMP DP  RH WIND       PRES   REMARKS
BILLINGS       TSTM      51  43  74 NW30G43   29.64R
GREAT FALLS    FAIR      51  40  65 S7        29.69F
$$





USA.gov is the U.S. government's official web portal to all federal, state and local government web resources and services.